Hourly Data Report for October 21, 2016

All times are specified in Local Standard Time (LST). Add 1 hour to adjust for Daylight Saving Time where and when it is observed.

KITCHENER/WATERLOO
ONTARIO

43°27'39.000" N
80°22'43.000" W
321.60 m
6144239
71368
YKF

Download Data

Hourly Data (October 2016)
Hourly Data Report for October 21, 2016
Temp Definition
°C
Dew Point Temp Definition
°C
Rel Hum Definition
%
Wind Dir Definition
10's deg

Wind Spd Definition
km/h
Visibility Definition
km
Stn Press Definition
kPa
Hmdx Definition


Wind Chill Definition


Weather Definition


TIME
00:00 Legend Double Dagger 10.1 9.2 94 35 11 16.1 97.64     Rain
01:00 Legend Double Dagger 9.9 9.3 96 33 13 16.1 97.64     Rain
02:00 Legend Double Dagger 9.8 9.0 95 35 13 16.1 97.59     Rain
03:00 Legend Double Dagger 9.7 8.9 95 36 15 16.1 97.48     Rain
04:00 Legend Double Dagger 9.7 8.8 94 35 13 16.1 97.52     LegendNANA
05:00 Legend Double Dagger 9.6 8.7 94 36 11 16.1 97.43     LegendNANA
06:00 Legend Double Dagger 9.6 8.7 94 35 11 16.1 97.44     Rain
07:00 Legend Double Dagger 9.6 8.7 94 34 13 16.1 97.48     Rain
08:00 Legend Double Dagger 9.1 8.2 94 35 17 16.1 97.48     Rain
09:00 Legend Double Dagger 8.0 6.8 92 36 17 16.1 97.50     Rain
10:00 Legend Double Dagger 7.7 6.3 91 1 22 16.1 97.45     Rain
11:00 Legend Double Dagger 7.6 5.9 89 35 21 16.1 97.49     LegendNANA
12:00 Legend Double Dagger 7.8 5.3 84 35 21 16.1 97.58     LegendNANA
13:00 Legend Double Dagger 7.9 5.0 82 35 22 16.1 97.48     LegendNANA
14:00 Legend Double Dagger 8.1 5.0 81 35 17 16.1 97.43     LegendNANA
15:00 Legend Double Dagger 8.2 4.6 78 34 26 16.1 97.44     LegendNANA
16:00 Legend Double Dagger 7.7 3.7 76 34 30 16.1 97.50     LegendNANA
17:00 Legend Double Dagger 7.1 2.6 73 34 28 16.1 97.51     LegendNANA
18:00 Legend Double Dagger 6.0 2.3 77 33 24 16.1 97.54     LegendNANA
19:00 Legend Double Dagger 5.5 2.2 79 33 21 16.1 97.53     LegendNANA
20:00 Legend Double Dagger 5.3 1.8 78 32 21 16.1 97.51     LegendNANA
21:00 Legend Double Dagger 4.7 1.6 80 32 21 16.1 97.49     LegendNANA
22:00 Legend Double Dagger 4.0 1.3 83 33 21 16.1 97.46     LegendNANA
23:00 Legend Double Dagger 3.1 0.8 85 32 15 16.1 97.42     LegendNANA

Notes on Data Quality.

Legend

  • E = Estimated
  • M = Missing
  • NA = Not Available
  • ‡ = Partner data that is not subject to review by the National Climate Archives
Date modified: